{"data":{"norad_id":60187,"intl_designator":"2024-124E","name":"STARLINK-11194 [DTC]","alt_names":[],"object_type":"PAYLOAD","status":"ACTIVE","operator":null,"country":"US","launch_date":"2024-07-03","launch_site_code":"AFETR","launch_vehicle":null,"mission":null,"orbit_class":"UNKNOWN","rcs_meters":null,"size_class":null,"mass_kg":null,"dimensions":null,"purposes":["comms"],"wikipedia_slug":null,"has_3d_model":false,"image_url":null,"decayed_at":null,"tle_current":{"epoch":"2026-09-20T05:36:31.730112Z","epoch_age_seconds":204487,"freshness":"STALE","line1":"1 60187U 24124E   26263.23370058 -.00002490  00000+0 -15715-4 0  9991","line2":"2 60187  53.1585 281.9123 0001221  61.1179 298.9961 15.69689056127096","mean_motion":15.69689056,"eccentricity":0.0001221,"inclination_deg":53.1585,"raan_deg":281.9123,"arg_perigee_deg":61.1179,"mean_anomaly_deg":298.9961,"bstar":-1.5715e-5,"rev_number":12709,"period_min":91.73791423822,"perigee_km":358.96398431533,"apogee_km":360.60938527916,"semimajor_km":6737.9236847972,"source":"CELESTRAK","updated_at":"2026-09-22T09:00:49.182312Z"}}}